Location: Alexandria
(38.8050°N, 77.0470°W)
Time: 16:40:47
(UTC-04:00)

ISS - Pass Details

Date: 16 March 2018
Orbit: 402 x 407 km, 51.6° (Epoch: 25 June)

Event Time Altitude Azimuth Distance (km) Brightness Sun altitude
Exits shadow 05:02:19 14° 18° (NNE) 1,274 -0.9 -26.7°
Drops below altitude 10° 05:04:05 10° 51° (NE) 1,478 -0.1 -26.4°
Enters shadow 06:02:06 -68° 292° (WNW) 12,298 3.6 -15.5°
Maximum altitude 06:39:26 59° 36° (NE) 478 -3.2 -8.3°
